Weather History for KORL - January, 2012

Change the Weather History Date:

Sunday, January 29, 2012

  Actual Average Record
Temperature  
Mean Temperature 62 °F -  
Max Temperature 72 °F 68 °F - (-1)
Min Temperature 53 °F 50 °F - (-1)
Degree Days  
Heating Degree Days 2    
Growing Degree Days 12 (Base 50)    
Moisture  
Dew Point 49 °F    
Average Humidity 69    
Maximum Humidity 89    
Minimum Humidity 38    
Precipitation  
Precipitation 0.00 in - - ()
Sea Level Pressure  
Sea Level Pressure 30.29 in    
Wind  
Wind Speed 5 mph (NNE)    
Max Wind Speed 10 mph    
Max Gust Speed -    
Visibility 10 miles    
Events      
Averages and records for this station are not official NWS values.
T = Trace of Precipitation, MM = Missing Value Source: NWS Daily Summary

Daily Weather History Graph

Daily Weather History Graph

Search for Another Location

Airport or City:

Trip Planner

Search our weather history database for the weather conditions in past years. The results will help you decide how hot, cold, wet, or windy it might be!

Date:

Astronomy

Jan. 29, 2012 Rise Set
Actual Time 7:15 AM EST 6:02 PM EST
Civil Twilight 6:50 AM EST 6:26 PM EST
Nautical Twilight 6:21 AM EST 6:55 PM EST
Astronomical Twilight 5:53 AM EST 7:23 PM EST
Moon 10:42 AM EST (1/29) No Moon Set
Length of Visible Light 11h 36m
Length of Day
10h 46m
Waxing Crescent, 36% of the Moon is Illuminated
Jan 29
Waxing Crescent
Jan 30
First Quarter
Feb 7
Full
Feb 14
Last Quarter
Feb 21
New

Hourly Weather History & Observations

Time (EST) Temp. Dew Point Humidity Pressure Visibility Wind Dir Wind Speed Gust Speed Precip Events Conditions
12:53 AM 57.0 °F 51.1 °F 81% 30.22 in 10.0 mi Calm Calm - N/A   Clear
1:53 AM 55.9 °F 52.0 °F 87% 30.22 in 10.0 mi Calm Calm - N/A   Clear
2:53 AM 55.9 °F 52.0 °F 87% 30.22 in 10.0 mi NW 5.8 mph - N/A   Clear
3:53 AM 55.0 °F 51.1 °F 86% 30.22 in 10.0 mi NNW 4.6 mph - N/A   Clear
4:53 AM 55.0 °F 51.1 °F 86% 30.23 in 10.0 mi NNW 6.9 mph - N/A   Clear
5:53 AM 54.0 °F 50.0 °F 86% 30.24 in 10.0 mi NNW 3.5 mph - N/A   Clear
6:53 AM 53.1 °F 50.0 °F 89% 30.27 in 10.0 mi NNW 4.6 mph - N/A   Clear
7:53 AM 54.0 °F 48.9 °F 83% 30.29 in 10.0 mi North 3.5 mph - N/A   Clear
8:53 AM 55.9 °F 48.9 °F 77% 30.31 in 10.0 mi North 3.5 mph - N/A   Clear
9:53 AM 63.0 °F 45.0 °F 52% 30.32 in 10.0 mi North 6.9 mph - N/A   Clear
10:53 AM 66.0 °F 44.1 °F 45% 30.33 in 10.0 mi NNE 10.4 mph - N/A   Clear
12:53 PM 71.1 °F 44.1 °F 38% 30.30 in 10.0 mi North 9.2 mph - N/A   Clear
1:53 PM 71.1 °F 44.1 °F 38% 30.27 in 10.0 mi NNE 8.1 mph - N/A   Clear
2:53 PM 72.0 °F 45.0 °F 38% 30.26 in 10.0 mi NNE 3.5 mph - N/A   Clear
4:53 PM 70.0 °F 48.0 °F 46% 30.27 in 10.0 mi NE 10.4 mph - N/A   Clear
5:53 PM 66.0 °F 48.0 °F 52% 30.28 in 10.0 mi ENE 8.1 mph - N/A   Clear
6:53 PM 62.1 °F 46.9 °F 58% 30.30 in 10.0 mi NE 8.1 mph - N/A   Clear
7:53 PM 60.1 °F 52.0 °F 75% 30.33 in 10.0 mi NE 8.1 mph - N/A   Clear
8:53 PM 59.0 °F 52.0 °F 78% 30.34 in 10.0 mi NNE 10.4 mph - N/A   Clear
9:53 PM 57.9 °F 52.0 °F 81% 30.35 in 10.0 mi NNE 9.2 mph - N/A   Clear
10:53 PM 57.0 °F 52.0 °F 83% 30.35 in 10.0 mi NNE 8.1 mph - N/A   Clear
11:53 PM 57.0 °F 51.1 °F 81% 30.36 in 10.0 mi NNE 8.1 mph - N/A   Clear